#timestamp,LO_Frequency,Hit 
1504170015.3,286046996.3,N
1504170035.1,286046996.0,N
1504170055.9,286046995.7,N
1504170075.7,286046996.3,N
1504170095.5,286046995.3,N
1504170115.4,286046995.1,N
1504170135.2,286046995.4,N
1504170155.0,286046991.8,P
1504170155.9,286046991.8,P
1504170175.8,286046996.6,N
1504170195.6,286046998.9,N
1504170215.4,286046997.5,N
1504170235.3,286046999.2,N
1504170255.1,286046998.9,N
1504170275.8,286046999.1,N
1504170295.7,286046997.5,N
1504170315.5,286046997.8,N
1504170335.3,286046997.9,N
1504170355.2,286046996.3,N
1504170375.9,286046995.5,N
1504170395.7,286046997.6,N
1504170415.6,286046997.7,N
1504170435.4,286046996.7,N
1504170455.2,286046997.0,N
1504170475.0,286046997.1,N
1504170476.0,286046997.1,N
1504170495.8,286046994.9,N
1504170515.6,286046993.7,P
1504170535.5,286046995.3,P
1504170555.3,286046997.8,N
1504170575.1,286046997.2,N
1504170595.9,286046996.6,N
1504170615.7,286046996.9,N
1504170635.5,286046996.9,N
1504170655.3,286046996.9,N
1504170675.2,286046997.3,N
1504170695.9,286046996.5,P
1504170715.7,286047000.4,P
1504170735.6,286047000.7,N
1504170755.4,286046998.2,N
1504170775.2,286047000.8,N
1504170795.1,286046998.4,N
1504170796.0,286046998.4,N
1504170815.8,286046998.4,N
1504170835.6,286046999.4,N
1504170855.5,286046999.1,N
1504170875.3,286046999.5,N
1504170895.1,286046999.4,N
1504170915.9,286046994.9,P
1504170935.7,286046997.6,N
1504170955.5,286046996.7,N
1504170975.4,286046997.4,N
1504170995.2,286046993.4,P
1504171015.0,286046996.6,N
1504171015.9,286046996.6,N
1504171035.8,286046999.4,N
1504171055.6,286046998.9,N
1504171075.4,286046999.2,N
1504171095.3,286046996.7,N
1504171115.1,286046999.6,N
1504171116.0,286046999.6,N
1504171135.8,286046998.0,N
1504171155.7,286046995.4,N
1504171175.5,286046996.3,N
1504171195.3,286046996.0,N
1504171215.2,286046993.7,P
1504171235.9,286046997.1,N
1504171255.7,286046997.3,N
1504171275.6,286046997.8,N
1504171295.4,286046996.9,N
1504171315.2,286046997.9,N
1504171335.1,286046997.0,N
1504171336.0,286046997.0,N
1504171355.8,286046997.4,N
1504171375.6,286046993.4,P
1504171395.5,286046998.0,N
1504171415.3,286046999.6,N
1504171435.1,286046997.3,N
1504171455.9,286046997.3,N
1504171475.7,286046995.1,N
1504171495.5,286046993.7,P
1504171515.4,286046993.6,P
1504171535.2,286046993.6,P
1504171555.0,286046996.1,N
1504171555.9,286046996.1,N
1504171575.8,286046996.1,N
1504171595.6,286046996.8,N
1504171615.4,286046997.6,N
1504171635.3,286046995.6,P
1504171655.1,286046997.7,P
1504171656.0,286046997.7,N
1504171675.8,286046996.6,P
1504171695.7,286047002.5,P
1504171715.5,286047006.0,N
1504171735.3,286047006.0,N
1504171755.2,286047002.4,N
1504171775.9,286047000.1,N
1504171795.7,286047000.3,N
1504171815.6,286046998.7,N
1504171835.4,286046998.5,N
1504171855.2,286047000.8,N
1504171875.1,286046998.2,N
1504171876.0,286046998.2,N
1504171895.8,286047001.2,N
1504171915.6,286046996.7,N
1504171935.4,286046993.6,N
1504171955.3,286046994.8,N
1504171975.1,286046993.9,N
1504171995.8,286046994.0,N
1504172015.7,286046997.9,N
1504172035.5,286046997.7,N
1504172055.3,286046996.0,N
1504172075.2,286046996.8,N
1504172095.9,286046998.0,N
1504172115.7,286046993.4,N
1504172135.6,286046993.8,N
1504172155.4,286046994.8,N
1504172175.2,286046993.6,N
1504172195.0,286046993.8,N
1504172196.0,286046993.8,N
1504172215.8,286046996.3,N
1504172235.6,286046996.2,N
1504172255.4,286046995.8,N
1504172275.3,286046994.1,N
1504172295.1,286046992.2,N
1504172315.8,286046992.0,N
1504172335.7,286046992.3,P
1504172355.5,286046993.7,P
1504172375.3,286046997.9,N
1504172395.2,286046996.5,N
1504172415.0,286046996.7,N
1504172415.9,286046996.7,N
1504172435.7,286046999.0,N
1504172455.6,286046997.9,N
1504172475.4,286046995.3,N
1504172495.2,286046993.3,P
1504172515.1,286046997.7,N
1504172516.0,286046997.7,N
1504172535.8,286046997.9,N
1504172555.6,286046997.8,N
1504172575.5,286046995.2,N
1504172595.3,286046998.0,N
1504172615.1,286046995.5,N
1504172635.9,286046995.8,N
1504172655.7,286046993.4,P
1504172675.5,286047000.9,N
1504172695.4,286047002.3,N
1504172715.2,286047001.5,N
1504172735.0,286047000.7,N
1504172735.9,286047000.7,N
1504172755.8,286046999.9,N
1504172775.6,286047000.6,N
1504172795.4,286047001.0,N
1504172815.3,286046997.4,N
1504172835.1,286046997.6,N
1504172836.0,286046997.6,N
1504172855.8,286046994.2,N
1504172875.7,286046993.4,N
1504172895.5,286046996.8,N
1504172915.3,286046994.4,N
1504172935.2,286046993.6,N
1504172955.9,286046994.4,N
1504172975.7,286046992.8,N
1504172995.5,286046992.0,N
1504173015.4,286046992.0,N
1504173035.2,286046994.4,N
1504173055.0,286046991.8,N
1504173055.9,286046991.8,N
1504173075.8,286046994.8,N
1504173095.6,286046990.4,N
1504173115.4,286046992.8,N
1504173135.3,286046990.6,N
1504173155.1,286046989.0,P
1504173175.8,286046997.6,N
1504173195.7,286046994.9,N
1504173215.5,286046997.5,N
1504173235.3,286046994.4,N
1504173255.2,286046993.4,N
1504173275.9,286046994.8,N
1504173295.7,286046994.3,N
1504173315.6,286046993.9,N
1504173335.4,286046990.1,P
1504173355.2,286046998.3,N
1504173375.1,286047000.0,N
1504173376.0,286047000.0,N
1504173395.8,286047002.2,N
1504173415.6,286046998.5,N
1504173435.5,286047002.3,N
1504173455.3,286047000.6,N
1504173475.1,286047002.5,N
1504173495.8,286047000.9,N
1504173515.7,286046998.8,N
1504173535.8,286047000.5,N
1504173555.6,286046996.9,N
1504173575.4,286046996.5,N
1504173595.3,286046998.4,N
